NOAA NWS Hourly Roundups by Site

Regional Weather Roundup for Green Bay, WI

To Select Another Site Choose from List

Select Site:  

978
ASUS43 KGRB 150411
RWRGRB

NORTH-CENTRAL AND NORTHEAST WISCONSIN REGIONAL WEATHER ROUNDUP
NATIONAL WEATHER SERVICE GREEN BAY WI
1100 PM CDT WED APR 14 2021

WIZ005-009-010>012-018-019-150500-
NORTH CENTRAL WISCONSIN

CITY           SKY/WX    TMP DP  RH WIND       PRES   REMARKS
IRONWOOD       CLOUDY    36  35  96 CALM      30.10F
MANITOWISH WTR CLOUDY    35  35 100 N7        30.06S
ARBOR VITAE    CLOUDY    37  28  71 N10       30.05S
EAGLE RIVER    LGT RAIN  34  34 100 N7        30.03S
LAND O LAKES   MIX PCPN  35  34  96 N10       30.05F
RHINELANDER    CLOUDY    35  32  88 VRB6      30.04S
PHILLIPS       CLOUDY    37  33  87 N7        30.07F
ANTIGO         CLOUDY    33  32  95 N12       30.02S
TOMAHAWK       CLOUDY    35  31  87 NW8       30.06S
MERRILL        CLOUDY    36  34  92 N6        30.04S
$$

WIZ013-073-150500-
NORTHEAST WISCONSIN

CITY           SKY/WX    TMP DP  RH WIND       PRES   REMARKS
IRON MOUNTAIN  CLOUDY    37  28  70 NW9       29.98F
MARINETTE      MIX PCPN  37  36  96 NW5       30.00F
OCONTO         MOCLDY    37  36  96 NW5       30.00F
$$

WIZ017-030-035>037-045-150500-
CENTRAL WISCONSIN

CITY           SKY/WX    TMP DP  RH WIND       PRES   REMARKS
MEDFORD        CLOUDY    36  33  89 N13       30.05S
WAUSAU         CLEAR     38  32  79 N12       30.02S
MOSINEE        PTCLDY    34  32  93 N13G18    30.05R
MARSHFIELD     MOCLDY    39  33  79 N12       30.05R
WISC RAPIDS    CLOUDY    38  35  89 N10       30.05S
STEVENS POINT  PTCLDY    34  33  94 N9        30.04S
WAUPACA        CLOUDY    38  35  89 W5        30.03F
SHAWANO        CLOUDY    40  36  86 N6        30.01F
CLINTONVILLE   CLOUDY    39  33  81 N7        30.02S
WAUTOMA        LGT RAIN  36  33  89 W7        30.05S
$$

WIZ038-039-048-051-150500-
FOX VALLEY

CITY           SKY/WX    TMP DP  RH WIND       PRES   REMARKS
NWS GREEN BAY  CLOUDY    39  35  86 NW8       30.00F
APPLETON       LGT RAIN  34  32  93 W10       30.00S
OSHKOSH        CLOUDY    38  31  76 NW12      30.01F
FOND DU LAC    LGT RAIN  39  31  72 W8        30.02F
$$

WIZ022-050-052-150500-
EAST CENTRAL WISCONSIN

CITY           SKY/WX    TMP DP  RH WIND       PRES   REMARKS
EPHRAIM        LGT RAIN  36  33  90 N13       29.97F
WASHINGTON ISL LGT RAIN  35  34  96 N10       29.97F
STURGEON BAY   CLOUDY    38  36  92 NW9       29.99F
MANITOWOC      LGT RAIN  39  35  86 W12       30.00F
SHEBOYGAN      CLOUDY    38  31  76 W10       30.00F
$$

LMZ563-521-522-541>543-150500-
LAKESHORE

STATION/POSITION TIME  TEMP    WIND        PRES    VSBY  WAVE
                       AIR SEA DIR/SP/G                  HT/PER
                 (UTC) (F)     (DEG/KT/KT) (MB)    (MI)  (FT/S)
SHEBOYGAN LKSHOR 0400   39     280/ 16/ 19   N/A
KEWAUNEE LKSHORE 0330   38     290/  5/  7 1015.1F
NORTHPORT PIER   0330   38     310/ 15/ 18 1016.3S
SISTER BAY LKSHO 0359   36     340/ 18/ 21   N/A
CHAMBERS ISLAND  0340   38     290/ 11/ 13   N/A
MENOMINEE LKSHOR 0330   38 50  320/ 10/ 11 1015.6F
$$



 

View Past Reports for Green Bay, WI.

Products Courtesy of NOAA-NWS
NWS Information Parsing Script by Ken True at Saratoga Weather - Script by SE Lincoln Weather.